This is the latest recevied weather packets stored in our database for station/object CQ0XBF-11. If no packets are shown the sender has not sent any weather packets the latest 10 day(s).
| Time | Temp. | Humidity | Pressure | Rain* | Wind** | Luminosity | Snow |
|---|---|---|---|---|---|---|---|
| 1778156558 | 22.22° C | 36% | - | 0 mm | - | - | - |
| 1778156436 | 22.22° C | 38% | - | 0 mm | - | - | - |
| 1778156315 | 22.22° C | 37% | - | 0 mm | - | - | - |
| 1778156248 | 22.22° C | 35% | - | 0 mm | - | - | - |
| 1778156194 | 22.22° C | 35% | - | 0 mm | - | - | - |
| 1778156072 | 23.89° C | 34% | - | 0 mm | - | - | - |
| 1778155950 | 24.44° C | 33% | - | 0 mm | - | - | - |
| 1778155706 | 25° C | 30% | - | 0 mm | - | - | - |
| 1778155585 | 23.89° C | 32% | - | 0 mm | - | - | - |
| 1778155463 | 23.33° C | 34% | - | 0 mm | - | - | - |
| 1778155342 | 22.78° C | 33% | - | 0 mm | - | - | - |
| 1778155220 | 22.78° C | 33% | - | 0 mm | - | - | - |
| 1778155138 | 23.33° C | 33% | - | 0 mm | - | - | - |
| 1778155099 | 23.33° C | 33% | - | 0 mm | - | - | - |
| 1778154977 | 23.89° C | 32% | - | 0 mm | - | - | - |
| 1778154856 | 24.44° C | 32% | - | 0 mm | - | - | - |
| 1778154734 | 23.89° C | 32% | - | 0 mm | - | - | - |
| 1778154613 | 23.89° C | 32% | - | 0 mm | - | - | - |
| 1778154491 | 23.89° C | 32% | - | 0 mm | - | - | - |
| 1778154370 | 23.89° C | 31% | - | 0 mm | - | - | - |
| 1778154248 | 23.89° C | 33% | - | 0 mm | - | - | - |
| 1778154127 | 23.33° C | 34% | - | 0 mm | - | - | - |
| 1778154005 | 22.78° C | 33% | - | 0 mm | - | - | - |
| 1778153917 | 22.78° C | 34% | - | 0 mm | - | - | - |
| 1778153884 | 22.78° C | 34% | - | 0 mm | - | - | - |
* Rain since midnight (hover to see other rain measurements)
** Current wind speed in m/s (hover to see current wind gust speed)